Погода в Анжаре

Ливан     33°43′44″N   35°55′56″E
темп.,
°C
ветер,
м/с
пор.,
м/с
влажн.,
%
обл.,
%
осадки,
мм/ч
давл.,
гПа
погр.,
м
7 марта, вс
вс723:00+7ю12622 0.0 102122
02:00+6ююз234718 0.0 101823
05:00+6ююз33350 0.0 101824
08:00+10юз23320 0.0 1018130
11:00+14зюз45161 0.0 1017993
14:00+14з46251 0.0 10151183
17:00+11з35390 0.0 1015646
20:00+7юз33620 0.0 101658
8 марта, пн
пн823:00+5ююз34620 0.0 101657
02:00+4ююз34830 0.0 101562
05:00+3ююз34938 0.0 101563
08:00+6юз348519 0.0 1016393
11:00+10з685852 0.0 10151281
14:00+11з7105227 0.0 10141353
17:00+8зюз47630 0.0 1014955
20:00+6зюз23880 0.0 1016100
9 марта, вт
вт923:00+4юз238838 0.0 101686
02:00+4ююз237320 0.0 101648
05:00+4юз34650 0.0 101637
08:00+7юз44500 0.0 1017274
11:00+12юз35310 0.0 1017845
14:00+14з36319 0.0 10151020
17:00+13з2542100 0.0 1016659
20:00+10ююз115995 0.0 101622
10 марта, ср
ср1023:00+9юз125667 0.0 101622
02:00+10юз466274 0.0 1014140
05:00+8в116650 0.0 101322
08:00+13юв335140 0.0 1013241
11:00+17ююв61137100 0.0 1011906
14:00+19юз12172888 0.0 10081927
17:00+14юз6123932 0.0 1006508
20:00+11ююз454229 0.0 100755
11 марта, чт
чт1123:00+10юз574434 0.0 1006110
02:00+7юз458167 0.0 100788
05:00+7зюз349699 0.0 1007100
08:00+8зюз5107996 0.1 1008975
11:00+10з8126573 0.1 10081307
14:00+9з9127453 0.3 10071301
17:00+7з71288100 1.7 1008914
20:00+6з598592 2.9 1010705